Location: Casteau
(50.5142°N, 4.0161°E)
Time: 08:24:18
(UTC+00:00)

SPOT 3 Rocket - Pass Details

Date: 18 September 2020
Orbit: 780 x 794 km, 98.8° (Epoch: 24 October)

Event Time Altitude Azimuth Distance (km) Brightness Sun altitude
Exits shadow 20:03:38 30° 171° (S) 1,360 4.4 -21.0°
Maximum altitude 20:06:13 81° 254° (WSW) 796 3.5 -21.4°
Drops below altitude 10° 20:11:25 10° 343° (NNW) 2,346 6.7 -22.1°
Sets 20:13:45 0° 345° (NNW) 3,280 7.5 -22.4°
